Wind_Speed
47 52 57 60 59 53 42 34 26 25 22 14 19 19 23 23 17 20 18 21 14 13 16 13 10 8 4 10 16 20 25 21 27 37 45 57 62 63 62 58 59 64 68 68
49 53 56 59 56 51 36 30 23 19 19 17 20 23 25 24 22 22 20 26 20 20 18 19 18 10 16 11 18 32 32 29 30 32 33 41 39 45 52 59 59 62 64 68
49 53 55 54 52 43 35 28 24 22 21 23 26 29 28 25 25 19 21 26 24 20 19 22 20 19 24 13 15 27 40 37 35 38 41 46 55 59 63 65 64 67 68 73
49 50 52 51 45 37 34 28 26 27 23 23 24 30 32 27 29 24 23 26 28 22 23 24 24 24 23 20 23 25 31 44 45 44 49 56 57 63 67 72 72 75 80 82
47 48 48 49 39 33 34 31 28 30 29 27 26 28 35 32 32 28 27 27 29 28 26 31 30 30 27 29 33 36 33 39 52 56 55 60 58 61 65 78 79 77 83 85
47 47 47 46 36 34 33 33 32 30 33 31 30 30 33 36 35 37 35 34 35 34 33 35 36 39 39 38 37 39 39 41 42 45 51 54 58 63 71 71 82 83 81 82
47 48 46 41 36 35 33 35 37 36 35 36 32 31 32 34 40 42 43 39 39 38 36 35 37 41 42 45 44 45 45 45 44 43 42 48 52 54 60 74 79 84 85 85
48 49 46 40 38 36 37 34 38 41 41 39 39 35 36 33 35 43 47 47 45 44 43 43 42 43 44 45 46 45 46 46 45 45 47 47 50 54 56 61 65 69 74 79
48 48 44 40 38 37 38 39 37 42 47 46 45 43 38 37 36 39 45 45 51 50 50 51 51 49 50 52 54 56 56 54 57 58 60 60 59 61 62 63 65 66 69 71
48 46 40 39 38 39 40 40 41 43 46 47 47 46 46 45 42 43 44 45 49 50 56 57 54 56 60 62 64 63 63 64 65 66 68 70 71 72 72 74 73 75 76 77
49 42 38 38 39 39 41 42 42 47 50 51 50 48 47 46 48 47 45 47 47 51 55 57 60 60 65 69 70 71 72 76 77 76 78 81 80 80 84 83 85 87 86 85
46 41 38 37 39 39 41 42 44 46 50 53 54 54 53 51 50 48 49 50 50 50 54 58 59 62 63 67 71 78 81 81 83 85 87 88 90 88 88 86 85 86 88 90
45 41 37 37 38 38 39 42 44 46 50 54 58 59 60 60 56 52 53 54 53 54 52 56 59 60 62 66 70 73 77 80 83 86 88 90 92 94 94 94 93 95 96 97
44 41 39 36 34 33 36 39 43 46 48 52 56 60 62 60 59 60 61 60 60 59 58 58 58 62 66 70 73 74 76 77 79 81 83 85 86 87 89 92 93 94 94 97
43 42 39 31 29 29 32 36 40 43 46 49 51 54 56 58 60 60 61 62 59 55 51 56 59 61 64 65 65 66 67 67 68 70 72 74 76 78 80 82 84 86 88 91
45 42 34 27 25 27 28 32 36 39 43 46 48 49 51 54 57 59 59 56 55 55 55 54 55 57 57 56 56 56 56 57 59 60 62 65 67 70 73 76 79 82 84 87
45 36 28 25 25 25 28 30 33 36 38 40 42 43 45 47 49 48 50 51 51 51 50 51 52 51 50 48 49 50 51 52 55 58 61 65 68 71 73 76 78 80 81 81
40 30 26 25 25 26 26 29 31 33 35 37 39 40 41 42 42 44 47 47 47 45 45 44 43 43 43 44 46 49 51 55 58 61 64 66 68 70 72 74 74 73 73 73
34 26 25 24 25 24 24 25 27 30 32 33 35 36 38 38 38 39 39 40 39 39 39 38 39 41 43 46 48 51 55 59 62 65 67 69 70 72 73 72 70 68 67 68
30 26 24 23 22 22 22 23 24 26 27 29 30 31 32 33 34 34 34 33 33 34 36 38 40 42 45 48 53 56 60 63 66 68 70 72 75 75 73 70 66 65 64 64
27 26 23 21 21 21 21 22 23 24 25 27 28 29 29 29 28 28 28 32 33 34 37 40 43 46 50 54 57 60 64 67 70 73 74 76 77 76 73 69 67 65 63 61
26 24 21 20 20 20 21 21 21 22 23 24 24 24 24 24 26 29 30 31 34 38 40 44 47 51 54 58 61 65 69 71 73 75 77 78 77 75 71 68 65 63 61 60
25 22 20 20 20 20 20 19 19 19 20 21 21 22 24 26 28 29 31 36 37 42 45 48 52 55 59 62 66 70 72 74 76 77 78 78 76 73 70 67 63 61 60 59
25 23 22 20 20 19 18 18 19 19 20 22 23 25 27 28 30 33 35 38 43 46 50 53 57 61 64 67 70 72 74 75 77 77 77 75 72 70 67 64 61 59 57 56
25 24 24 25 22 21 21 22 21 22 23 25 27 29 30 31 33 36 40 44 47 51 54 57 61 63 66 69 72 73 74 75 76 75 74 71 69 66 64 61 60 58 57 54
27 27 27 26 26 27 26 24 24 27 29 29 31 32 33 35 38 41 44 48 52 54 58 60 62 65 68 72 73 73 74 74 74 72 70 68 65 63 61 59 58 56 55 53
31 31 31 31 32 31 30 28 29 32 32 33 33 36 37 40 43 45 48 51 54 57 61 63 66 69 71 72 73 73 73 72 70 68 67 65 63 61 58 56 54 53 51 49
Wind_Direction
282 287 296 294 297 301 303 295 283 260 257 250 241 252 260 270 256 235 248 189 188 178 142 141 123 117 97 173 177 179 170 183 215 232 239 242 243 246 243 242 242 240 239 238
283 292 294 296 299 302 299 294 281 255 260 250 245 250 261 268 243 230 217 193 201 169 173 172 172 176 213 180 192 174 181 193 203 210 230 223 221 226 224 228 225 224 227 222
285 292 295 297 300 297 295 289 270 254 251 252 243 249 257 255 241 235 218 207 192 190 183 180 179 178 186 200 190 198 206 203 205 221 231 227 221 220 222 226 224 224 227 228
287 292 296 299 298 293 288 283 269 257 254 252 246 246 248 248 237 233 219 212 204 208 206 198 200 197 211 211 216 219 221 220 218 226 232 229 232 236 234 226 227 229 228 230
292 295 300 303 293 285 281 274 262 258 255 252 252 250 245 242 235 224 210 207 208 217 219 217 209 213 213 221 213 228 231 234 229 235 237 237 240 242 234 228 228 235 234 235
295 298 305 298 291 281 273 265 262 254 253 253 249 248 245 245 237 227 216 220 216 217 227 224 220 221 212 215 230 239 245 249 246 237 241 242 244 243 239 239 236 239 243 244
297 299 305 295 284 276 268 261 257 258 255 254 254 252 250 250 243 237 233 222 224 228 228 233 229 218 224 227 232 248 252 252 252 252 252 249 248 246 245 242 242 244 247 248
297 301 301 289 280 272 269 258 252 252 255 256 257 256 253 253 253 249 240 236 233 230 233 236 238 236 236 239 243 247 253 257 255 257 257 252 253 254 250 246 243 245 247 248
298 303 296 286 278 273 266 263 251 245 249 253 255 257 257 257 255 253 254 253 246 238 238 238 245 242 242 240 242 244 246 247 248 249 253 253 253 252 253 252 251 250 250 251
300 299 290 280 275 271 267 260 255 251 249 250 252 255 254 253 254 256 258 253 253 253 245 239 243 250 251 249 248 249 253 255 255 255 256 255 254 256 257 258 259 257 254 253
302 295 285 279 274 268 263 259 253 247 248 249 252 256 257 256 254 253 254 257 258 257 255 253 254 255 251 252 256 257 256 255 258 259 259 260 262 260 259 262 263 261 257 257
302 292 286 280 274 266 259 256 250 248 248 249 253 255 258 261 261 259 258 258 258 258 258 258 262 262 260 257 258 256 257 257 260 261 262 262 264 263 265 265 267 262 262 264
301 295 290 284 274 263 255 251 248 246 246 247 249 252 256 258 260 263 265 265 264 262 259 259 258 257 259 258 259 259 259 260 261 261 263 264 264 266 267 268 268 270 271 269
302 299 297 286 272 258 252 248 245 245 246 246 248 251 255 258 262 266 269 268 267 265 263 264 265 265 264 262 262 263 263 265 266 268 270 271 272 272 272 271 272 272 271 270
306 304 297 283 271 260 251 247 245 245 247 249 250 252 255 258 261 264 266 268 269 271 273 274 270 269 269 270 271 272 273 274 274 274 273 273 273 273 273 273 273 273 273 272
307 302 291 281 268 261 254 249 247 246 246 247 249 252 255 257 259 261 266 272 276 275 274 275 275 274 276 277 277 277 276 276 276 277 277 276 277 278 278 277 277 276 275 275
306 298 287 277 267 257 253 250 247 247 247 249 251 253 255 258 261 265 268 271 273 274 276 276 277 278 279 278 279 279 279 280 281 283 283 284 284 284 283 282 280 279 278 277
303 294 286 276 270 265 257 252 251 249 247 248 249 252 255 259 263 264 266 268 272 273 275 276 278 279 280 281 282 284 285 287 287 289 290 290 290 290 290 288 286 285 283 282
300 290 282 278 272 267 260 255 251 250 249 250 250 252 255 257 259 262 266 268 271 273 275 277 279 281 282 284 288 292 293 295 295 295 296 297 298 297 295 293 292 290 287 285
296 289 283 276 269 266 262 258 254 250 249 248 250 252 254 256 259 263 267 269 270 274 277 280 282 286 290 294 295 295 296 298 299 299 299 300 301 299 298 298 297 295 291 288
296 288 282 275 270 267 263 257 252 249 246 244 245 248 251 256 259 261 263 267 273 279 282 285 289 292 294 296 298 299 302 303 302 303 302 302 302 302 301 301 299 296 294 291
296 286 281 274 268 266 264 259 254 248 246 245 246 248 249 251 255 261 269 275 281 285 289 292 294 296 298 300 302 302 303 303 304 303 303 303 303 303 303 302 299 297 295 293
296 289 282 278 272 265 258 255 252 249 247 245 243 244 250 256 264 272 277 283 285 288 291 294 297 300 301 303 304 304 305 305 304 304 304 304 305 304 303 302 300 298 296 294
295 289 278 272 269 263 256 255 251 246 245 246 250 256 262 267 274 281 285 287 290 293 296 299 300 301 303 304 305 306 305 304 304 304 304 305 305 304 303 302 300 298 296 293
290 282 274 273 262 257 253 252 252 253 255 257 262 267 271 276 282 285 288 292 295 298 300 301 302 304 305 306 306 306 305 305 305 306 306 306 305 304 303 302 300 298 296 294
285 277 270 264 257 258 257 256 258 259 261 265 271 276 281 284 287 290 293 296 298 299 301 302 304 305 306 307 307 306 306 307 308 309 308 307 306 305 303 302 300 298 296 293
283 274 268 265 261 260 261 259 260 263 267 272 277 281 284 287 291 294 297 299 301 302 303 305 307 308 309 309 309 309 310 310 311 311 310 308 307 306 305 303 301 299 297 295
Height
10392 10387 10381 10374 10366 10359 10356 10351 10350 10347 10345 10344 10344 10347 10348 10349 10350 10350 10348 10347 10346 10347 10348 10350 10352 10356 10359 10362 10368 10374 10382 10391 10399 10405 10409 10412 10417 10422 10430 10435 10439 10444 10450 10458
10382 10377 10370 10362 10354 10347 10345 10342 10341 10340 10338 10339 10341 10344 10345 10347 10347 10348 10346 10346 10346 10348 10350 10352 10355 10358 10361 10364 10370 10376 10380 10384 10389 10394 10399 10400 10405 10413 10417 10422 10426 10432 10436 10442
10372 10365 10359 10350 10341 10337 10334 10335 10334 10334 10334 10335 10337 10339 10341 10344 10344 10346 10345 10346 10347 10348 10349 10352 10355 10358 10361 10364 10368 10374 10376 10377 10382 10387 10389 10394 10396 10399 10405 10409 10413 10418 10423 10427
10362 10355 10347 10339 10332 10329 10326 10327 10327 10327 10328 10330 10332 10334 10336 10339 10340 10343 10343 10344 10346 10347 10349 10351 10354 10356 10360 10362 10366 10368 10372 10375 10377 10379 10381 10383 10386 10389 10393 10396 10401 10404 10407 10412
10349 10343 10335 10327 10322 10321 10318 10318 10320 10320 10321 10323 10325 10328 10330 10333 10336 10338 10340 10341 10343 10345 10347 10349 10350 10353 10355 10358 10359 10362 10364 10366 10368 10369 10371 10373 10375 10378 10380 10384 10387 10390 10394 10398
10336 10330 10325 10316 10313 10311 10309 10310 10310 10312 10314 10316 10318 10320 10322 10326 10330 10332 10334 10336 10338 10339 10341 10343 10345 10347 10348 10351 10353 10354 10356 10356 10357 10359 10360 10361 10363 10364 10366 10369 10373 10374 10376 10380
10324 10317 10314 10306 10303 10301 10301 10302 10302 10303 10305 10307 10310 10313 10315 10317 10321 10324 10327 10329 10331 10333 10334 10336 10338 10340 10342 10343 10344 10345 10345 10346 10346 10347 10347 10348 10349 10350 10350 10353 10356 10357 10358 10360
10314 10307 10301 10295 10292 10291 10290 10292 10292 10294 10296 10298 10300 10304 10306 10309 10311 10313 10317 10320 10322 10325 10327 10328 10330 10331 10332 10333 10334 10334 10335 10334 10334 10333 10333 10334 10334 10334 10335 10336 10335 10336 10337 10339
10301 10295 10287 10283 10280 10278 10279 10279 10282 10284 10286 10288 10290 10293 10296 10299 10302 10304 10306 10308 10311 10314 10316 10319 10320 10321 10322 10321 10321 10321 10320 10320 10320 10320 10319 10318 10318 10318 10318 10318 10317 10316 10317 10316
10288 10280 10275 10270 10268 10267 10267 10268 10269 10271 10274 10277 10280 10282 10284 10287 10290 10293 10295 10297 10298 10301 10303 10305 10307 10308 10308 10308 10307 10307 10306 10305 10304 10303 10302 10302 10301 10300 10299 10299 10299 10299 10298 10297
10271 10266 10262 10258 10255 10254 10253 10254 10257 10259 10261 10264 10267 10269 10272 10274 10277 10280 10281 10283 10285 10287 10288 10290 10291 10291 10292 10292 10290 10289 10288 10287 10285 10285 10284 10283 10281 10280 10278 10274 10273 10270 10269 10269
10256 10251 10248 10244 10241 10240 10240 10241 10243 10245 10248 10252 10255 10257 10259 10261 10262 10265 10268 10270 10271 10272 10273 10275 10274 10272 10272 10271 10269 10268 10267 10265 10263 10262 10260 10257 10255 10253 10248 10246 10246 10244 10242 10239
10242 10237 10233 10229 10226 10225 10226 10227 10229 10232 10235 10239 10242 10245 10246 10248 10249 10252 10253 10253 10253 10254 10256 10255 10254 10254 10253 10250 10247 10244 10242 10241 10240 10237 10236 10233 10230 10227 10224 10223 10218 10214 10210 10209
10229 10223 10218 10215 10212 10212 10212 10214 10217 10220 10223 10225 10229 10231 10233 10234 10238 10240 10239 10237 10236 10237 10237 10238 10239 10236 10233 10230 10228 10227 10225 10223 10221 10218 10214 10211 10207 10202 10197 10192 10187 10182 10180 10173
10216 10210 10206 10203 10200 10201 10202 10203 10206 10209 10211 10213 10216 10218 10220 10223 10225 10225 10224 10222 10222 10223 10224 10222 10219 10217 10214 10213 10211 10208 10205 10202 10198 10193 10189 10185 10180 10175 10170 10165 10160 10155 10148 10140
10205 10200 10195 10192 10191 10191 10192 10193 10195 10197 10199 10202 10204 10206 10208 10210 10211 10210 10209 10209 10209 10208 10206 10205 10203 10200 10198 10195 10193 10189 10186 10182 10178 10173 10168 10162 10157 10152 10145 10139 10133 10126 10120 10111
10193 10189 10185 10183 10182 10182 10183 10183 10185 10186 10188 10190 10192 10194 10196 10197 10197 10197 10197 10196 10194 10193 10192 10189 10187 10184 10182 10179 10176 10172 10168 10163 10157 10151 10146 10140 10133 10126 10119 10111 10104 10095 10088 10083
10183 10179 10176 10175 10174 10174 10175 10175 10176 10177 10179 10180 10182 10184 10185 10186 10186 10186 10185 10184 10183 10181 10179 10176 10173 10170 10168 10165 10160 10155 10150 10144 10138 10132 10124 10117 10109 10101 10092 10082 10073 10066 10059 10052
10174 10170 10168 10167 10166 10166 10166 10166 10167 10168 10169 10171 10173 10174 10175 10176 10175 10174 10174 10172 10171 10168 10166 10163 10161 10158 10154 10149 10144 10138 10132 10125 10118 10111 10102 10093 10084 10073 10064 10055 10047 10038 10031 10024
10165 10162 10160 10158 10157 10157 10157 10158 10159 10159 10161 10162 10163 10164 10164 10165 10164 10163 10163 10161 10159 10157 10155 10152 10149 10145 10139 10134 10128 10121 10114 10107 10098 10090 10080 10070 10059 10048 10038 10029 10021 10013 10006 9999
10157 10154 10152 10150 10150 10149 10149 10150 10150 10151 10152 10153 10154 10154 10154 10155 10154 10153 10152 10150 10149 10147 10144 10140 10135 10131 10124 10118 10112 10105 10096 10087 10078 10068 10057 10046 10035 10024 10014 10005 9997 9989 9982 9976
10151 10148 10145 10144 10143 10143 10143 10143 10143 10143 10144 10145 10145 10145 10145 10145 10145 10144 10142 10141 10139 10135 10131 10126 10121 10115 10109 10102 10095 10087 10077 10067 10057 10046 10035 10023 10012 10001 9992 9984 9975 9968 9960 9954
10146 10143 10140 10139 10138 10138 10138 10138 10137 10137 10138 10138 10138 10138 10138 10137 10136 10135 10134 10130 10128 10123 10119 10114 10106 10100 10093 10085 10077 10067 10057 10046 10034 10023 10012 10001 9990 9980 9970 9962 9954 9948 9941 9935
10141 10138 10136 10135 10134 10133 10133 10133 10133 10133 10133 10133 10132 10132 10132 10131 10129 10126 10123 10120 10115 10111 10105 10099 10093 10085 10076 10067 10058 10047 10036 10024 10013 10002 9991 9980 9969 9959 9950 9941 9934 9927 9921 9915
10137 10135 10133 10131 10130 10129 10129 10129 10129 10129 10128 10128 10127 10125 10124 10122 10119 10116 10112 10108 10103 10097 10091 10084 10075 10066 10058 10048 10038 10027 10016 10004 9993 9981 9969 9959 9949 9939 9930 9922 9914 9907 9901 9896
10131 10130 10128 10127 10125 10125 10124 10124 10124 10123 10122 10121 10119 10116 10115 10111 10108 10104 10100 10095 10089 10083 10075 10067 10059 10051 10041 10029 10018 10007 9995 9983 9972 9960 9948 9937 9928 9919 9911 9903 9895 9888 9882 9877
10123 10122 10121 10120 10119 10118 10118 10118 10116 10114 10114 10111 10110 10106 10104 10101 10097 10092 10087 10081 10074 10066 10058 10049 10040 10030 10020 10007 9995 9984 9973 9962 9950 9939 9927 9917 9908 9899 9892 9884 9877 9871 9864 9859